FW7504 Weather Reports


Display with metric or nautical units.
time (UTC)temp
F
wind
direction
speed
MPH
gust
MPH
rain 1hr
in
rain 24hr
in
rain mn
in
humidity
%
barometer
mb
20260904181601 92 0 0.0 2.0 0.00 0.00 0.00 62 1017.7
20260904181051 92 0 0.0 3.0 0.00 0.00 0.00 62 1017.8
20260904180550 92 0 1.0 3.0 0.00 0.00 0.00 62 1017.8
20260904180110 92 0 0.0 3.0 0.00 0.00 0.00 64 1017.8
20260904175550 92 0 0.0 4.0 0.00 0.00 0.00 61 1017.9
20260904175050 92 0 0.0 5.0 0.00 0.00 0.00 62 1017.9
20260904174604 92 360 1.0 5.0 0.00 0.00 0.00 60 1018.0
20260904174050 92 0 0.0 3.0 0.00 0.00 0.00 61 1017.9
20260904173549 92 0 0.0 2.0 0.00 0.00 0.00 61 1018.0
20260904173103 92 360 0.0 2.0 0.00 0.00 0.00 61 1018.1
20260904172551 92 0 0.0 4.0 0.00 0.00 0.00 62 1018.3
20260904172053 92 360 1.0 4.0 0.00 0.00 0.00 61 1018.2
20260904171602 91 360 1.0 5.0 0.00 0.00 0.00 61 1018.4
20260904171052 91 360 2.0 5.0 0.00 0.00 0.00 61 1018.4
20260904170549 91 360 1.0 5.0 0.00 0.00 0.00 61 1018.5
20260904170130 91 360 1.0 5.0 0.00 0.00 0.00 62 1018.5
20260904165550 90 360 2.0 4.0 0.00 0.00 0.00 63 1018.6
20260904165052 90 360 1.0 5.0 0.00 0.00 0.00 65 1018.7
20260904164605 90 0 1.0 5.0 0.00 0.00 0.00 65 1018.7
20260904164053 90 360 1.0 4.0 0.00 0.00 0.00 65 1018.7
20260904163555 89 360 0.0 4.0 0.00 0.00 0.00 65 1018.7
20260904163106 89 360 0.0 5.0 0.00 0.00 0.00 66 1018.8
20260904162550 89 0 0.0 5.0 0.00 0.00 0.00 65 1018.8
20260904162052 89 360 1.0 4.0 0.00 0.00 0.00 67 1018.9
20260904161603 88 0 0.0 1.0 0.00 0.00 0.00 68 1018.9
20260904161048 88 0 0.0 2.0 0.00 0.00 0.00 68 1019.1
20260904160552 88 360 0.0 3.0 0.00 0.00 0.00 68 1019.1
20260904160105 88 0 0.0 4.0 0.00 0.00 0.00 68 1019.2
20260904155552 88 360 0.0 4.0 0.00 0.00 0.00 68 1019.3
20260904155054 88 360 1.0 4.0 0.00 0.00 0.00 68 1019.3
20260904154607 88 360 0.0 3.0 0.00 0.00 0.00 69 1019.2
20260904154052 88 0 0.0 3.0 0.00 0.00 0.00 69 1019.2
20260904153552 87 0 0.0 3.0 0.00 0.00 0.00 70 1019.2
20260904153107 87 0 0.0 3.0 0.00 0.00 0.00 70 1019.3
20260904152552 87 0 0.0 3.0 0.00 0.00 0.00 71 1019.2
20260904152054 87 0 1.0 3.0 0.00 0.00 0.00 71 1019.2
20260904151603 86 360 0.0 3.0 0.00 0.00 0.00 71 1019.3
20260904151052 86 360 0.0 3.0 0.00 0.00 0.00 71 1019.3
20260904150552 86 360 0.0 4.0 0.00 0.00 0.00 71 1019.3
20260904145552 86 360 0.0 2.0 0.00 0.00 0.00 74 1019.2
20260904145051 85 0 0.0 2.0 0.00 0.00 0.00 74 1019.3
20260904144603 85 360 0.0 3.0 0.00 0.00 0.00 75 1019.3
20260904144056 85 0 1.0 3.0 0.00 0.00 0.00 74 1019.2
20260904143552 84 0 0.0 3.0 0.00 0.00 0.00 75 1019.1
20260904143101 84 360 1.0 3.0 0.00 0.00 0.00 76 1019.1
20260904142553 84 0 0.0 2.0 0.00 0.00 0.00 76 1019.0
20260904142054 84 0 0.0 1.0 0.00 0.00 0.00 75 1019.1
20260904141622 84 0 0.0 2.0 0.00 0.00 0.00 77 1018.9
20260904141053 83 0 0.0 2.0 0.00 0.00 0.00 77 1018.8
20260904140552 83 0 0.0 2.0 0.00 0.00 0.00 77 1018.8
20260904140105 82 0 0.0 2.0 0.00 0.00 0.00 78 1018.7
20260904135556 82 360 0.0 2.0 0.00 0.00 0.00 78 1018.8
20260904135053 81 360 0.0 2.0 0.00 0.00 0.00 79 1018.9
20260904134606 81 0 0.0 2.0 0.00 0.00 0.00 80 1018.9
20260904134052 81 360 0.0 2.0 0.00 0.00 0.00 81 1018.8
20260904133551 80 360 0.0 2.0 0.00 0.00 0.00 81 1018.8
20260904133101 80 0 1.0 2.0 0.00 0.00 0.00 82 1018.8
20260904132553 80 0 0.0 3.0 0.00 0.00 0.00 83 1018.8
20260904132054 79 360 1.0 3.0 0.00 0.00 0.00 83 1018.8
20260904131639 79 0 0.0 2.0 0.00 0.00 0.00 85 1019.0
20260904131052 78 0 0.0 2.0 0.00 0.00 0.00 86 1019.0
20260904130552 78 0 0.0 0.0 0.00 0.00 0.00 87 1018.9
20260904125553 77 0 0.0 0.0 0.00 0.00 0.00 88 1018.9
20260904125050 77 0 0.0 0.0 0.00 0.00 0.00 88 1019.0
20260904124559 77 0 0.0 0.0 0.00 0.00 0.00 89 1018.9
20260904124049 76 0 0.0 0.0 0.00 0.00 0.00 89 1018.8
20260904123549 76 0 0.0 0.0 0.00 0.00 0.00 90 1018.8
20260904123109 76 0 0.0 0.0 0.00 0.00 0.00 90 1018.9
20260904122552 75 0 0.0 0.0 0.00 0.00 0.00 90 1018.8
20260904122054 75 0 0.0 1.0 0.00 0.00 0.00 91 1018.8
20260904121559 75 0 0.0 2.0 0.00 0.00 0.00 91 1018.9
20260904121052 75 0 0.0 2.0 0.00 0.00 0.00 91 1018.9
20260904120555 75 0 0.0 0.0 0.00 0.00 0.00 91 1018.8
20260904120106 75 0 0.0 0.0 0.00 0.00 0.00 91 1018.7
20260904115551 74 0 0.0 0.0 0.00 0.00 0.00 91 1018.8
20260904115052 74 0 0.0 1.0 0.00 0.00 0.00 91 1018.7
20260904114601 74 0 0.0 1.0 0.00 0.00 0.00 91 1018.6
20260904114052 75 0 0.0 0.0 0.00 0.00 0.00 91 1018.6
20260904113552 74 0 0.0 0.0 0.00 0.00 0.00 90 1018.5
20260904113110 75 0 0.0 0.0 0.00 0.00 0.00 90 1018.4
20260904112551 75 0 0.0 0.0 0.00 0.00 0.00 91 1018.6
20260904112051 75 0 0.0 0.0 0.00 0.00 0.00 91 1018.5
20260904111600 75 0 0.0 2.0 0.00 0.00 0.00 90 1018.5
20260904111051 75 0 0.0 2.0 0.00 0.00 0.00 90 1018.4
20260904110552 75 0 0.0 2.0 0.00 0.00 0.00 90 1018.3
20260904110106 75 360 0.0 2.0 0.00 0.00 0.00 90 1018.2
20260904105552 75 0 0.0 1.0 0.00 0.00 0.00 90 1018.1
20260904105053 75 0 0.0 1.0 0.00 0.00 0.00 89 1018.1
20260904104611 75 0 0.0 0.0 0.00 0.00 0.00 89 1018.0
20260904104051 75 0 0.0 0.0 0.00 0.00 0.00 89 1017.9
20260904103552 75 0 0.0 0.0 0.00 0.00 0.00 89 1018.0
20260904103107 75 0 0.0 0.0 0.00 0.00 0.00 89 1017.9
20260904102552 75 0 0.0 0.0 0.00 0.00 0.00 89 1017.9
20260904102052 75 0 0.0 0.0 0.00 0.00 0.00 89 1017.9
20260904101604 75 0 0.0 0.0 0.00 0.00 0.00 90 1018.0
20260904101051 75 0 0.0 0.0 0.00 0.00 0.00 89 1017.9
20260904100552 75 0 0.0 0.0 0.00 0.00 0.00 89 1017.9
20260904100059 75 0 0.0 0.0 0.00 0.00 0.00 89 1017.9
20260904095553 75 0 0.0 0.0 0.00 0.00 0.00 89 1017.9
20260904095052 75 0 0.0 0.0 0.00 0.00 0.00 89 1017.7
20260904094602 76 0 0.0 0.0 0.00 0.00 0.00 89 1017.8
20260904094051 76 0 0.0 0.0 0.00 0.00 0.00 89 1017.7
20260904093551 76 0 0.0 0.0 0.00 0.00 0.00 89 1017.7
20260904093105 76 0 0.0 0.0 0.00 0.00 0.00 89 1017.7
20260904092552 76 0 0.0 0.0 0.00 0.00 0.00 88 1017.7
20260904092052 76 0 0.0 0.0 0.00 0.00 0.00 89 1017.8
20260904091600 76 0 0.0 0.0 0.00 0.00 0.00 89 1017.7
20260904091051 76 0 0.0 0.0 0.00 0.00 0.00 88 1017.7
20260904090548 76 0 0.0 0.0 0.00 0.00 0.00 88 1017.6
20260904085548 76 0 0.0 0.0 0.00 0.00 0.00 88 1017.7
20260904085051 76 0 0.0 0.0 0.00 0.00 0.00 87 1017.8
20260904084601 76 0 0.0 0.0 0.00 0.00 0.00 87 1017.6
20260904084049 76 0 0.0 0.0 0.00 0.00 0.00 87 1017.7
20260904083550 76 0 0.0 0.0 0.00 0.00 0.00 87 1017.6
20260904083110 77 0 0.0 0.0 0.00 0.00 0.00 87 1017.5
20260904082550 77 0 0.0 0.0 0.00 0.00 0.00 87 1017.7
20260904082050 77 0 0.0 0.0 0.00 0.00 0.00 87 1017.6
20260904081559 77 0 0.0 0.0 0.00 0.00 0.00 87 1017.6
20260904081051 77 0 0.0 0.0 0.00 0.00 0.00 86 1017.6
20260904080549 77 0 0.0 0.0 0.00 0.00 0.00 86 1017.5
20260904075549 77 0 0.0 1.0 0.00 0.00 0.00 86 1017.4
20260904075051 77 0 0.0 1.0 0.00 0.00 0.00 86 1017.5
20260904074635 77 0 0.0 0.0 0.00 0.00 0.00 86 1017.3
20260904074049 77 0 0.0 0.0 0.00 0.00 0.00 86 1017.4
20260904073555 77 0 0.0 0.0 0.00 0.00 0.00 86 1017.5
20260904073103 77 0 0.0 0.0 0.00 0.00 0.00 86 1017.5
20260904072554 78 0 0.0 0.0 0.00 0.00 0.00 85 1017.4
20260904072051 78 0 0.0 0.0 0.00 0.00 0.00 86 1017.2
20260904071555 78 0 0.0 0.0 0.00 0.00 0.00 86 1017.2
20260904071049 78 0 0.0 0.0 0.00 0.00 0.00 85 1017.0
20260904070554 78 0 0.0 1.0 0.00 0.00 0.00 85 1017.2
20260904070104 78 0 0.0 1.0 0.00 0.00 0.00 85 1017.2
20260904065548 78 0 0.0 0.0 0.00 0.00 0.00 85 1017.3
20260904065051 78 0 0.0 0.0 0.00 0.00 0.00 85 1017.3
20260904064601 78 0 0.0 0.0 0.00 0.00 0.00 85 1017.2
20260904064051 78 0 0.0 0.0 0.00 0.00 0.00 85 1017.2
20260904063552 78 0 0.0 0.0 0.00 0.00 0.00 85 1017.2
20260904063112 78 0 0.0 1.0 0.00 0.00 0.00 85 1017.5
20260904062555 78 0 0.0 1.0 0.00 0.00 0.00 84 1017.6
20260904062054 79 0 0.0 0.0 0.00 0.00 0.00 84 1017.6
20260904061603 79 0 0.0 0.0 0.00 0.00 0.00 84 1017.5
20260904061049 79 0 0.0 0.0 0.00 0.00 0.00 84 1017.5
20260904060552 79 0 0.0 0.0 0.00 0.00 0.00 84 1017.5
20260904060115 79 0 0.0 0.0 0.00 0.00 0.00 83 1017.5
20260904055551 79 0 0.0 0.0 0.00 0.00 0.00 83 1017.5
20260904055051 79 0 0.0 0.0 0.00 0.00 0.00 83 1017.5
20260904054608 79 0 0.0 0.0 0.00 0.00 0.00 83 1017.5
20260904054050 79 0 0.0 0.0 0.00 0.00 0.00 83 1017.4
20260904053551 79 0 0.0 0.0 0.00 0.00 0.00 82 1017.6
20260904053101 79 0 0.0 0.0 0.00 0.00 0.00 82 1017.6
20260904052552 79 0 0.0 0.0 0.00 0.00 0.00 82 1017.7
20260904052052 80 0 0.0 0.0 0.00 0.00 0.00 82 1017.6
20260904051600 80 0 0.0 0.0 0.00 0.00 0.00 81 1017.7
20260904051051 80 0 0.0 0.0 0.00 0.00 0.00 81 1017.8
20260904050551 80 0 0.0 0.0 0.00 0.00 0.00 81 1017.9
20260904050107 80 0 0.0 0.0 0.00 0.00 0.00 80 1017.8
20260904045552 80 0 0.0 0.0 0.00 0.00 0.00 80 1017.8
20260904045053 80 0 0.0 0.0 0.00 0.00 0.00 80 1017.8
20260904044606 80 0 0.0 0.0 0.00 0.00 0.00 80 1017.8
20260904044052 80 0 0.0 0.0 0.00 0.00 0.00 80 1017.9
20260904043549 81 0 0.0 0.0 0.00 0.00 0.00 80 1017.9
20260904043103 81 0 0.0 0.0 0.00 0.00 0.00 80 1018.0
20260904042551 81 0 0.0 1.0 0.00 0.00 0.00 79 1017.9
20260904042049 81 0 0.0 1.0 0.00 0.00 0.00 79 1017.8
20260904041602 81 0 0.0 1.0 0.00 0.00 0.00 79 1017.8
20260904041053 81 108 0.0 0.0 0.00 0.00 0.00 79 1018.0
20260904040548 81 0 0.0 0.0 0.00 0.00 0.00 78 1018.1
20260904040100 81 0 0.0 1.0 0.00 0.00 0.00 78 1018.1
20260904035552 81 0 0.0 2.0 0.00 0.00 0.00 78 1018.1
20260904035055 82 0 0.0 2.0 0.00 0.00 0.00 78 1018.1
20260904034615 82 0 0.0 2.0 0.00 0.00 0.00 78 1018.1
20260904034051 82 0 0.0 0.0 0.00 0.00 0.00 78 1018.0
20260904033551 82 0 0.0 0.0 0.00 0.00 0.00 78 1018.1
20260904033102 82 0 0.0 0.0 0.00 0.00 0.00 78 1018.1
20260904032550 82 0 0.0 0.0 0.00 0.00 0.00 77 1018.2
20260904032051 82 0 0.0 0.0 0.00 0.00 0.00 77 1018.2
20260904031558 82 0 0.0 0.0 0.00 0.00 0.00 76 1018.2
20260904031051 82 0 0.0 1.0 0.00 0.00 0.00 76 1018.2
20260904030553 83 0 0.0 1.0 0.00 0.00 0.00 76 1018.3
20260904025554 83 0 0.0 1.0 0.00 0.00 0.00 75 1018.3
20260904025051 83 0 0.0 0.0 0.00 0.00 0.00 75 1018.3
20260904024603 83 0 0.0 0.0 0.00 0.00 0.00 74 1018.2
20260904024049 83 0 0.0 0.0 0.00 0.00 0.00 74 1018.2
20260904023548 83 0 0.0 0.0 0.00 0.00 0.00 74 1018.2
20260904023108 83 0 0.0 2.0 0.00 0.00 0.00 73 1018.2
20260904022551 84 0 0.0 2.0 0.00 0.00 0.00 73 1018.2
20260904022048 84 0 0.0 2.0 0.00 0.00 0.00 73 1018.1
20260904021601 84 0 0.0 2.0 0.00 0.00 0.00 73 1018.0
20260904021051 84 0 0.0 2.0 0.00 0.00 0.00 74 1018.0
20260904020552 84 0 0.0 0.0 0.00 0.00 0.00 73 1018.0
20260904020101 84 0 0.0 0.0 0.00 0.00 0.00 73 1018.0
20260904015551 85 0 0.0 0.0 0.00 0.00 0.00 73 1017.9
20260904015048 85 0 0.0 0.0 0.00 0.00 0.00 72 1017.7
20260904014608 85 0 0.0 0.0 0.00 0.00 0.00 72 1017.7
20260904014048 85 0 0.0 0.0 0.00 0.00 0.00 72 1017.8
20260904013551 86 0 0.0 0.0 0.00 0.00 0.00 71 1017.6
20260904013103 86 0 0.0 0.0 0.00 0.00 0.00 71 1017.4
20260904012551 86 0 0.0 0.0 0.00 0.00 0.00 70 1017.5
20260904012053 86 0 0.0 0.0 0.00 0.00 0.00 70 1017.3
20260904011601 86 0 0.0 0.0 0.00 0.00 0.00 70 1017.4
20260904011053 87 0 0.0 0.0 0.00 0.00 0.00 69 1017.3
20260904010554 87 0 0.0 0.0 0.00 0.00 0.00 68 1017.3
20260904010103 87 0 0.0 0.0 0.00 0.00 0.00 67 1017.2
20260904005555 87 0 0.0 0.0 0.00 0.00 0.00 68 1017.2
20260904005055 88 0 0.0 0.0 0.00 0.00 0.00 66 1017.2
20260904004603 88 0 0.0 0.0 0.00 0.00 0.00 67 1017.2
20260904004053 88 0 0.0 0.0 0.00 0.00 0.00 66 1016.9
20260904003554 89 0 0.0 0.0 0.00 0.00 0.00 65 1016.8
20260904003102 89 0 0.0 0.0 0.00 0.00 0.00 64 1016.8
20260904002557 89 0 0.0 0.0 0.00 0.00 0.00 64 1016.7
20260904002058 90 0 0.0 0.0 0.00 0.00 0.00 63 1016.5
20260904001601 90 0 0.0 0.0 0.00 0.00 0.00 63 1016.5
20260904001053 91 0 0.0 0.0 0.00 0.00 0.00 62 1016.5
20260904000553 91 0 0.0 0.0 0.00 0.00 0.00 61 1016.5
20260904000134 91 0 0.0 0.0 0.00 0.00 0.00 60 1016.4
20260903235552 92 0 0.0 0.0 0.00 0.00 0.00 60 1016.2
20260903235056 92 0 0.0 0.0 0.00 0.00 0.00 59 1016.2
20260903234600 92 0 0.0 0.0 0.00 0.00 0.00 59 1016.3
20260903234053 92 0 0.0 0.0 0.00 0.00 0.00 58 1016.2
20260903233554 92 0 0.0 0.0 0.00 0.00 0.00 58 1016.2
20260903233105 93 0 0.0 1.0 0.00 0.00 0.00 58 1016.3
20260903232553 93 0 0.0 1.0 0.00 0.00 0.00 58 1016.1
20260903232055 93 0 0.0 1.0 0.00 0.00 0.00 57 1016.2
20260903231600 93 0 0.0 1.0 0.00 0.00 0.00 57 1016.2
20260903231054 94 0 0.0 0.0 0.00 0.00 0.00 56 1016.1
20260903230554 94 0 0.0 0.0 0.00 0.00 0.00 56 1016.2
20260903230114 94 0 0.0 0.0 0.00 0.00 0.00 55 1016.2
20260903225553 94 0 0.0 1.0 0.00 0.00 0.00 53 1016.1
20260903225053 95 0 0.0 2.0 0.00 0.00 0.00 52 1016.1
20260903224610 95 0 0.0 4.0 0.00 0.00 0.00 52 1016.1
20260903224053 95 0 0.0 4.0 0.00 0.00 0.00 51 1016.1
20260903223554 95 96 0.0 4.0 0.00 0.00 0.00 51 1016.3
20260903223059 96 78 1.0 4.0 0.00 0.00 0.00 50 1016.3
20260903222553 96 92 2.0 4.0 0.00 0.00 0.00 50 1016.1
20260903222057 96 0 0.0 4.0 0.00 0.00 0.00 50 1016.2
20260903221606 97 0 0.0 3.0 0.00 0.00 0.00 50 1016.0
20260903221052 97 89 0.0 3.0 0.00 0.00 0.00 49 1016.1
20260903220553 97 91 0.0 6.0 0.00 0.00 0.00 49 1016.1
20260903220121 97 0 1.0 6.0 0.00 0.00 0.00 48 1016.0
20260903215553 96 62 2.0 7.0 0.00 0.00 0.00 49 1016.0
20260903215053 96 0 1.0 7.0 0.00 0.00 0.00 49 1016.1
20260903214600 96 0 1.0 7.0 0.00 0.00 0.00 49 1016.2
20260903214053 97 0 0.0 4.0 0.00 0.00 0.00 50 1016.2
20260903213556 96 0 1.0 4.0 0.00 0.00 0.00 50 1016.2
20260903213105 96 0 0.0 7.0 0.00 0.00 0.00 50 1016.2
20260903212553 96 89 1.0 7.0 0.00 0.00 0.00 49 1016.2
20260903212054 96 57 2.0 7.0 0.00 0.00 0.00 48 1016.3
20260903211620 96 90 3.0 7.0 0.00 0.00 0.00 47 1016.5
20260903211055 96 67 2.0 6.0 0.00 0.00 0.00 49 1016.6
20260903210553 96 91 2.0 9.0 0.00 0.00 0.00 50 1016.6
20260903210111 96 0 1.0 9.0 0.00 0.00 0.00 49 1016.7
20260903205552 95 14 4.0 9.0 0.00 0.00 0.00 50 1016.7
20260903205052 95 0 0.0 7.0 0.00 0.00 0.00 51 1016.7
20260903204603 95 100 1.0 7.0 0.00 0.00 0.00 52 1016.7
20260903204054 95 40 0.0 7.0 0.00 0.00 0.00 53 1016.7
20260903203553 95 82 1.0 4.0 0.00 0.00 0.00 53 1016.8
20260903203105 95 0 0.0 6.0 0.00 0.00 0.00 53 1016.9
20260903202553 95 0 1.0 7.0 0.00 0.00 0.00 53 1016.8
20260903202053 95 120 2.0 10.0 0.00 0.00 0.00 53 1016.9
20260903201605 95 109 3.0 11.0 0.00 0.00 0.00 52 1016.9
20260903201053 95 106 4.0 11.0 0.00 0.00 0.00 52 1017.0
20260903200553 96 120 2.0 11.0 0.00 0.00 0.00 53 1017.0
20260903200106 96 81 6.0 11.0 0.00 0.00 0.00 51 1017.1
20260903195556 96 94 2.0 8.0 0.00 0.00 0.00 52 1017.1
20260903195053 96 108 2.0 10.0 0.00 0.00 0.00 51 1017.2
20260903194601 96 61 3.0 10.0 0.00 0.00 0.00 51 1017.2
20260903194056 96 59 3.0 12.0 0.00 0.00 0.00 51 1017.2
20260903193552 96 0 3.0 12.0 0.00 0.00 0.00 52 1017.2
20260903193102 96 94 5.0 12.0 0.00 0.00 0.00 52 1017.2
20260903192554 96 95 2.0 7.0 0.00 0.00 0.00 51 1017.4
20260903192055 96 96 1.0 6.0 0.00 0.00 0.00 51 1017.4
20260903191605 95 0 0.0 8.0 0.00 0.00 0.00 51 1017.6
20260903191054 95 326 3.0 8.0 0.00 0.00 0.00 51 1017.6
20260903190553 95 352 0.0 4.0 0.00 0.00 0.00 50 1017.6
20260903190103 95 67 0.0 4.0 0.00 0.00 0.00 51 1017.6
20260903185552 95 347 0.0 4.0 0.00 0.00 0.00 51 1017.8
20260903185053 95 85 1.0 6.0 0.00 0.00 0.00 52 1017.9
20260903184616 94 70 1.0 6.0 0.00 0.00 0.00 53 1017.9
20260903184054 94 82 1.0 6.0 0.00 0.00 0.00 54 1018.1
20260903183553 94 61 2.0 6.0 0.00 0.00 0.00 54 1018.1
20260903183102 94 11 0.0 6.0 0.00 0.00 0.00 54 1018.1
20260903182553 93 13 2.0 7.0 0.00 0.00 0.00 56 1018.1
20260903182052 93 61 1.0 7.0 0.00 0.00 0.00 55 1018.3